Zurück zum Katalog

NOAA 16 DEB

AktivPO
NORAD 41366·DEBRIS·🇺🇸 United States

Gestartet Sep 21, 2000 von Vandenberg Space Force Base

Loading…

Nächste Überflüge (nächste 24 Stunden)

TLE

AktuellSource: Space-Track

Epoche: Sep 14, 2026, 13:31 UTC

1 41366U 00055JK  26257.56377314  .00007364  00000-0  22025-2 0  9991
2 41366  98.9391  19.5834 0022173 338.2094  21.8150 14.43051281546781

Verfolge NOAA 16 DEB in Echtzeit mit AllMySat

Download on the App Store